SPRITE-SAT (RISING)

Satellite information

Favourite Embed

Satellite Type and Status

PAYLOADIN ORBIT

Key statistics

Satellite SPRITE-SAT (RISING) at a glance.

Uptime

6009

Days in orbit

Revolutions

≈ 14.7

Per day

Orbit

SSO

Sun Synchronous Orbit

Inclination

98.2

Latest

Satellite identification and parameters

Extended collection of information and parameters for SPRITE-SAT (RISING).

Object identification

Identified? True

Debris? False

Object name: SPRITE-SAT (RISING)

International designator: 2009-002C

Object number (NORAD): 33494

Object ID (CCSDS): 33494

Country: JAPAN (JPN)

Current information (Y/N): Y

RCS size: MEDIUM

Orbital parameters

Period: 97.647 minutes

Inclination: 98.1788 deg

SMA: 7024.218 km

Apoapsis: 649.119 km

Periapsis: 643.048 km

RAAN: 84.6654 deg

Eccentricy: 0.0004322

Argument of periapsis: 42.8213 deg

Mean anomaly: 317.3331 deg

Mean motion: 14.74707041 rev/day

Mean motion (dot): 0.00000462 rev/day2

B* drag term: 0.000076931 1/REarth

Two-line elements (TLE)

Creation date: July 6, 2025, 6:05 p.m.

Reference frame: TEME

Reference center: EARTH

Epoch: July 6, 2025, 2:11 p.m. UTC

TLE line 0: 0 SPRITE-SAT (RISING)

TLE line 1: 1 33494U 09002C 25187.59156086 .00000462 00000-0 76931-4 0 9999

TLE line 2: 2 33494 98.1788 84.6654 0004322 42.8213 317.3331 14.74707041882868

Live tracking on map

Real-time ground track for satellite SPRITE-SAT (RISING).

In-orbit conjunctions

There are no conjunctions computed for SPRITE-SAT (RISING), at the moment. Check back to stay up to date, as we update our databases every day.

Go to all conjunctions

Associated space launch

Japanese Earth observation satellite. Launched with 7 secondary payloads.

SPRITE-SAT (RISING) was lifted into orbit during the mission ‘H-IIA 202 | GOSAT’, on board a H-IIA space rocket.

The launch took place on Jan. 23, 2009, 3:54 a.m. from Yoshinobu Launch Complex LP-1.

For more information about the launch, click the button.

Launch to space H-IIA 202 | GOSAT
H-IIA 202 | GOSAT

Agency: N/A

Status: Launch Successful

Launch date: Jan. 23, 2009, 3:54 a.m. UTC

Rocket: H-IIA

Launch pad: Yoshinobu Launch Complex LP-1

Location: Tanegashima Space Center, Japan

...

Latest news about this satellite

There are no fresh news available about this satellite. Check back as we update our databases every day.


Newsletter sign-up

Weekly statistics, charts and insights to help you stay on top of the space industry.